Weather in Voskhod

Russia / Sverdlovsk Oblast     56°43′38″N   62°50′39″E
temp.,
°C
wind,
m/s
gust,
m/s
humid.,
%
clouds,
%
prec.,
mm/h
press.,
hPa
HPBL,
m
8 march, mon
mon823:00−15nw339398 0.4 100636
02:00−18w339845 0.0 100731
05:00−20w349652 0.0 100838
08:00−21wsw33950 0.0 100835
11:00−14ssw359036 0.0 1008241
14:00−10s5886100 0.0 1006523
17:00−9s61189100 0.1 1004725
20:00−8s51189100 0.1 1003417
9 march, tue
tue923:00−6ssw71592100 0.1 1002538
02:00−8sw5138870 0.0 1003315
05:00−9ssw5118835 0.0 1004249
08:00−9ssw3892100 0.0 1003209
11:00−4ssw61195100 1.3 1001841
14:00−3w71093100 1.0 1002954
17:00−5wnw498498 1.3 1006547
20:00−10wsw348541 0.0 101034
10 march, wed
wed1023:00−12wsw348948 0.0 101182
02:00−14wsw239195 0.0 101120
05:00−15sse119297 0.0 101020
08:00−13ese2392100 0.0 100848
11:00−9e3590100 0.0 1006328
14:00−6e5791100 0.0 1003550
17:00−6e71093100 0.5 1000732
20:00−7ene61195100 1.3 999622
11 march, thu
thu1123:00−8ne71195100 2.8 999528
02:00−13nne81494100 1.2 999449
05:00−16nne71295100 2.3 1001491
08:00−18n71196100 0.9 1002496
11:00−18n71195100 1.6 1004500
14:00−16nnw61092100 0.3 1005597
17:00−16nnw61088100 0.5 1007682
20:00−18nnw51095100 0.1 1010598
12 march, fri
fri1223:00−22nw469496 0.1 1012106
02:00−27nw44960 0.0 101471
05:00−29nw34960 0.0 101661
08:00−29nw35970 0.0 101883
11:00−22wnw35920 0.0 1020298
14:00−17w35780 0.0 1020592
17:00−15sw37847 0.0 1019472
20:00−17ssw479687 0.0 1020136